FW7989 Weather Reports


Display with metric or nautical units.
time (UTC)temp
F
wind
direction
speed
MPH
gust
MPH
rain 1hr
in
rain 24hr
in
rain mn
in
humidity
%
barometer
mb
20260510211557 45 69 0.0 2.0 0.00 0.00 0.00 75 1014.9
20260510211058 45 69 0.0 2.0 0.00 0.00 0.00 76 1014.9
20260510210558 45 64 0.0 2.0 0.00 0.00 0.00 76 1014.9
20260510210055 45 0 0.0 2.0 0.00 0.00 0.00 75 1014.9
20260510205558 46 17 0.0 2.0 0.00 0.00 0.00 75 1014.9
20260510205058 46 51 0.0 2.0 0.00 0.00 0.00 74 1015.0
20260510204559 46 42 0.0 3.0 0.00 0.00 0.00 75 1014.9
20260510204101 46 0 1.0 3.0 0.00 0.00 0.00 74 1014.7
20260510203558 47 116 0.0 2.0 0.00 0.00 0.00 75 1014.7
20260510203058 47 0 0.0 3.0 0.00 0.00 0.00 74 1014.8
20260510202559 47 333 0.0 3.0 0.00 0.00 0.00 74 1014.7
20260510202057 48 360 0.0 2.0 0.00 0.00 0.00 74 1014.5
20260510201616 48 0 0.0 2.0 0.00 0.00 0.00 74 1014.6
20260510201058 49 0 0.0 2.0 0.00 0.00 0.00 74 1014.7
20260510200557 49 71 0.0 2.0 0.00 0.00 0.00 73 1014.7
20260510200100 49 0 0.0 2.0 0.00 0.00 0.00 73 1014.7
20260510195559 50 71 0.0 2.0 0.00 0.00 0.00 72 1014.7
20260510195058 51 71 0.0 2.0 0.00 0.00 0.00 71 1014.7
20260510194600 51 48 0.0 2.0 0.00 0.00 0.00 71 1014.8
20260510194058 51 0 0.0 2.0 0.00 0.00 0.00 70 1014.7
20260510193558 52 48 0.0 2.0 0.00 0.00 0.00 70 1014.7
20260510193106 52 48 0.0 1.0 0.00 0.00 0.00 70 1014.7
20260510192558 52 0 0.0 1.0 0.00 0.00 0.00 69 1014.7
20260510192058 52 48 0.0 2.0 0.00 0.00 0.00 69 1014.9
20260510191603 53 0 0.0 2.0 0.00 0.00 0.00 69 1014.9
20260510191059 53 0 0.0 1.0 0.00 0.00 0.00 67 1014.7
20260510190558 53 0 0.0 3.0 0.00 0.00 0.00 65 1014.7
20260510190100 53 0 0.0 4.0 0.00 0.00 0.00 65 1014.7
20260510185557 54 0 1.0 4.0 0.00 0.00 0.00 61 1014.7
20260510185059 54 312 1.0 4.0 0.00 0.00 0.00 60 1014.6
20260510184600 54 346 2.0 4.0 0.00 0.00 0.00 60 1014.6
20260510184101 55 329 1.0 4.0 0.00 0.00 0.00 59 1014.6
20260510183602 55 300 2.0 4.0 0.00 0.00 0.00 59 1014.7
20260510183058 56 0 0.0 7.0 0.00 0.00 0.00 59 1014.7
20260510182558 56 88 1.0 12.0 0.00 0.00 0.00 58 1014.6
20260510182058 57 0 3.0 12.0 0.00 0.00 0.00 54 1014.7
20260510181601 57 73 4.0 10.0 0.00 0.00 0.00 56 1014.8
20260510181059 57 48 4.0 9.0 0.00 0.00 0.00 56 1014.8
20260510180558 57 14 3.0 8.0 0.00 0.00 0.00 56 1014.9
20260510180110 57 69 1.0 6.0 0.00 0.00 0.00 56 1015.0
20260510175557 57 19 1.0 6.0 0.00 0.00 0.00 56 1014.9
20260510175058 57 171 0.0 4.0 0.00 0.00 0.00 57 1014.9
20260510174605 58 98 1.0 9.0 0.00 0.00 0.00 57 1015.0
20260510174058 58 313 2.0 9.0 0.00 0.00 0.00 59 1015.0
20260510173557 58 65 4.0 9.0 0.00 0.00 0.00 56 1015.1
20260510173107 58 97 3.0 7.0 0.00 0.00 0.00 55 1015.1
20260510172557 58 9 1.0 7.0 0.00 0.00 0.00 57 1015.2
20260510172058 58 17 2.0 8.0 0.00 0.00 0.00 57 1015.2
20260510171609 58 0 2.0 8.0 0.00 0.00 0.00 57 1015.2
20260510171059 58 41 3.0 11.0 0.00 0.00 0.00 56 1015.2
20260510170558 59 71 6.0 11.0 0.00 0.00 0.00 55 1015.3
20260510170058 59 41 3.0 9.0 0.00 0.00 0.00 55 1015.4
20260510165558 59 0 1.0 9.0 0.00 0.00 0.00 59 1015.4
20260510165059 58 57 3.0 9.0 0.00 0.00 0.00 58 1015.3
20260510164605 58 72 3.0 10.0 0.00 0.00 0.00 59 1015.4
20260510164058 58 86 3.0 12.0 0.00 0.00 0.00 58 1015.4
20260510163559 58 80 5.0 15.0 0.00 0.00 0.00 57 1015.4
20260510163101 59 74 8.0 15.0 0.00 0.00 0.00 58 1015.5
20260510162601 59 81 5.0 13.0 0.00 0.00 0.00 59 1015.6
20260510162058 58 71 5.0 11.0 0.00 0.00 0.00 59 1015.6
20260510161605 58 55 3.0 11.0 0.00 0.00 0.00 62 1015.6
20260510161058 57 90 5.0 14.0 0.00 0.00 0.00 59 1015.7
20260510160559 58 13 3.0 14.0 0.00 0.00 0.00 60 1015.8
20260510160108 58 25 4.0 13.0 0.00 0.00 0.00 60 1015.9
20260510155558 58 46 3.0 13.0 0.00 0.00 0.00 61 1016.0
20260510155058 57 66 7.0 13.0 0.00 0.00 0.00 61 1016.0
20260510154600 57 0 2.0 11.0 0.00 0.00 0.00 62 1016.1
20260510154057 56 95 5.0 11.0 0.00 0.00 0.00 63 1016.1
20260510153558 56 77 3.0 15.0 0.00 0.00 0.00 63 1016.3
20260510153102 56 51 6.0 15.0 0.00 0.00 0.00 62 1016.3
20260510152558 56 40 5.0 15.0 0.00 0.00 0.00 63 1016.3
20260510152058 56 74 6.0 16.0 0.00 0.00 0.00 62 1016.4
20260510151611 56 83 7.0 16.0 0.00 0.00 0.00 63 1016.4
20260510151058 56 71 3.0 10.0 0.00 0.00 0.00 65 1016.4
20260510150600 56 0 2.0 9.0 0.00 0.00 0.00 65 1016.5
20260510150109 56 283 3.0 9.0 0.00 0.00 0.00 65 1016.6
20260510145558 56 0 2.0 6.0 0.00 0.00 0.00 66 1016.5
20260510145058 56 348 1.0 7.0 0.00 0.00 0.00 66 1016.5
20260510144608 56 360 2.0 9.0 0.00 0.00 0.00 65 1016.6
20260510144058 56 0 3.0 11.0 0.00 0.00 0.00 67 1016.7
20260510143558 56 16 4.0 13.0 0.00 0.00 0.00 65 1016.8
20260510143108 55 58 6.0 13.0 0.00 0.00 0.00 65 1016.8
20260510142559 55 54 4.0 14.0 0.00 0.00 0.00 66 1016.8
20260510142058 55 85 8.0 14.0 0.00 0.00 0.00 65 1017.0
20260510141559 56 66 3.0 12.0 0.00 0.00 0.00 67 1016.9
20260510141058 56 57 2.0 11.0 0.00 0.00 0.00 66 1017.0
20260510140558 55 321 2.0 11.0 0.00 0.00 0.00 68 1017.1
20260510140058 55 5 4.0 11.0 0.00 0.00 0.00 65 1017.2
20260510135559 55 46 3.0 9.0 0.00 0.00 0.00 66 1017.1
20260510135059 55 0 2.0 9.0 0.00 0.00 0.00 68 1017.2
20260510134606 55 86 2.0 9.0 0.00 0.00 0.00 68 1017.3
20260510134059 55 279 2.0 8.0 0.00 0.00 0.00 68 1017.2
20260510133558 55 316 3.0 8.0 0.00 0.00 0.00 68 1017.1
20260510133102 55 325 1.0 8.0 0.00 0.00 0.00 69 1017.2
20260510132558 56 309 3.0 8.0 0.00 0.00 0.00 69 1017.2
20260510132059 56 77 2.0 8.0 0.00 0.00 0.00 68 1017.2
20260510131557 56 300 4.0 11.0 0.00 0.00 0.00 67 1017.2
20260510131058 56 103 3.0 11.0 0.00 0.00 0.00 68 1017.2
20260510130558 56 49 3.0 10.0 0.00 0.00 0.00 68 1017.1
20260510130112 56 115 2.0 8.0 0.00 0.00 0.00 67 1017.1
20260510125557 56 323 1.0 14.0 0.00 0.00 0.00 68 1017.2
20260510125059 56 26 2.0 14.0 0.00 0.00 0.00 69 1017.3
20260510124606 56 77 6.0 13.0 0.00 0.00 0.00 65 1017.3
20260510124059 57 77 3.0 10.0 0.00 0.00 0.00 67 1017.4
20260510123559 57 306 2.0 12.0 0.00 0.00 0.00 67 1017.4
20260510123104 57 336 5.0 12.0 0.00 0.00 0.00 69 1017.5
20260510122558 56 38 4.0 11.0 0.00 0.00 0.00 69 1017.5
20260510122058 56 347 3.0 12.0 0.00 0.00 0.00 68 1017.5
20260510121605 56 323 3.0 16.0 0.00 0.00 0.00 68 1017.6
20260510121100 56 30 8.0 16.0 0.00 0.00 0.00 66 1017.7
20260510120558 56 63 10.0 19.0 0.00 0.00 0.00 65 1017.6
20260510120058 56 64 7.0 19.0 0.00 0.00 0.00 65 1017.6
20260510115558 56 72 10.0 19.0 0.00 0.00 0.00 65 1017.6
20260510115058 56 310 9.0 19.0 0.00 0.00 0.00 65 1017.7
20260510114600 56 92 10.0 19.0 0.00 0.00 0.00 65 1017.7
20260510114057 56 103 6.0 20.0 0.00 0.00 0.00 66 1017.8
20260510113558 56 56 6.0 21.0 0.00 0.00 0.00 66 1017.8
20260510113107 56 98 9.0 21.0 0.00 0.00 0.00 65 1017.8
20260510112559 57 44 13.0 21.0 0.00 0.00 0.00 65 1018.0
20260510112059 57 319 7.0 18.0 0.00 0.00 0.00 65 1017.7
20260510111559 58 80 5.0 18.0 0.00 0.00 0.00 66 1017.9
20260510111059 57 104 9.0 21.0 0.00 0.00 0.00 66 1018.0
20260510110600 57 75 5.0 21.0 0.00 0.00 0.00 69 1018.1
20260510110058 57 349 7.0 21.0 0.00 0.00 0.00 65 1018.0
20260510105559 57 31 2.0 11.0 0.00 0.00 0.00 68 1018.2
20260510105059 57 328 5.0 13.0 0.00 0.00 0.00 70 1018.2
20260510104558 57 350 3.0 16.0 0.00 0.00 0.00 69 1018.1
20260510104057 57 103 5.0 18.0 0.00 0.00 0.00 70 1018.1
20260510103559 56 35 5.0 18.0 0.00 0.00 0.00 68 1018.1
20260510103059 56 43 9.0 18.0 0.00 0.00 0.00 68 1018.2
20260510102557 56 32 7.0 14.0 0.00 0.00 0.00 70 1018.0
20260510102058 56 296 6.0 14.0 0.00 0.00 0.00 69 1018.1
20260510101600 56 313 6.0 14.0 0.00 0.00 0.00 69 1018.1
20260510101058 56 334 8.0 14.0 0.00 0.00 0.00 69 1018.1
20260510100558 57 352 6.0 14.0 0.00 0.00 0.00 69 1018.0
20260510100110 56 16 2.0 15.0 0.00 0.00 0.00 69 1018.1
20260510095600 56 319 3.0 19.0 0.00 0.00 0.00 68 1018.0
20260510095058 57 87 9.0 19.0 0.00 0.00 0.00 63 1018.1
20260510094558 57 101 10.0 18.0 0.00 0.00 0.00 61 1018.1
20260510094057 58 115 10.0 19.0 0.00 0.00 0.00 62 1018.2
20260510093557 57 87 11.0 19.0 0.00 0.00 0.00 64 1018.2
20260510093100 56 151 10.0 19.0 0.00 0.00 0.00 65 1018.3
20260510092601 56 69 10.0 19.0 0.00 0.00 0.00 65 1018.3
20260510092102 55 48 9.0 21.0 0.00 0.00 0.00 67 1018.3
20260510091601 55 46 11.0 21.0 0.00 0.00 0.00 67 1018.3
20260510091057 54 63 10.0 18.0 0.00 0.00 0.00 68 1018.3
20260510090558 54 48 10.0 18.0 0.00 0.00 0.00 68 1018.5
20260510090058 55 103 9.0 16.0 0.00 0.00 0.00 70 1018.4
20260510085559 55 26 5.0 13.0 0.00 0.00 0.00 67 1018.5
20260510085059 55 32 6.0 14.0 0.00 0.00 0.00 66 1018.5
20260510084600 55 73 8.0 17.0 0.00 0.00 0.00 66 1018.5
20260510084058 55 62 10.0 20.0 0.00 0.00 0.00 64 1018.5
20260510083601 55 42 9.0 20.0 0.00 0.00 0.00 65 1018.6
20260510083102 55 75 7.0 20.0 0.00 0.00 0.00 66 1018.8
20260510082557 55 58 5.0 12.0 0.00 0.00 0.00 68 1018.6
20260510082057 55 26 6.0 15.0 0.00 0.00 0.00 68 1018.6
20260510081559 56 75 6.0 15.0 0.00 0.00 0.00 69 1018.6
20260510081058 55 127 8.0 15.0 0.00 0.00 0.00 67 1018.6
20260510080600 54 69 7.0 22.0 0.00 0.00 0.00 67 1018.6
20260510080104 54 130 7.0 22.0 0.00 0.00 0.00 67 1018.5
20260510075601 54 50 9.0 18.0 0.00 0.00 0.00 68 1018.5
20260510075058 54 37 10.0 18.0 0.00 0.00 0.00 67 1018.5
20260510074559 54 67 5.0 17.0 0.00 0.00 0.00 69 1018.5
20260510074058 54 57 5.0 17.0 0.00 0.00 0.00 68 1018.4
20260510073559 54 28 6.0 19.0 0.00 0.00 0.00 70 1018.3
20260510073116 53 99 8.0 19.0 0.00 0.00 0.00 71 1018.3
20260510072558 53 54 9.0 20.0 0.00 0.00 0.00 70 1018.4
20260510072059 52 63 10.0 20.0 0.00 0.00 0.00 71 1018.4
20260510071558 52 72 8.0 19.0 0.00 0.00 0.00 71 1018.3
20260510071058 52 65 7.0 18.0 0.00 0.00 0.00 71 1018.3
20260510070557 53 78 9.0 17.0 0.00 0.00 0.00 71 1018.3
20260510070106 53 51 7.0 17.0 0.00 0.00 0.00 71 1018.3
20260510065559 53 82 6.0 15.0 0.00 0.00 0.00 71 1018.2
20260510065100 53 68 5.0 15.0 0.00 0.00 0.00 71 1018.2
20260510064636 52 76 8.0 14.0 0.00 0.00 0.00 71 1018.2
20260510064058 53 37 6.0 12.0 0.00 0.00 0.00 72 1018.3
20260510063558 53 78 6.0 16.0 0.00 0.00 0.00 71 1018.2
20260510063058 53 223 5.0 16.0 0.00 0.00 0.00 72 1018.2
20260510062558 53 82 6.0 16.0 0.00 0.00 0.00 72 1018.1
20260510062059 53 57 3.0 14.0 0.00 0.00 0.00 71 1018.2
20260510061557 53 128 1.0 15.0 0.00 0.00 0.00 73 1018.1
20260510061058 52 142 4.0 15.0 0.00 0.00 0.00 71 1018.1
20260510060602 52 126 4.0 14.0 0.00 0.00 0.00 72 1018.0
20260510060059 52 60 6.0 14.0 0.00 0.00 0.00 72 1018.2
20260510055558 52 91 2.0 11.0 0.00 0.00 0.00 73 1018.1
20260510055059 51 38 5.0 14.0 0.00 0.00 0.00 74 1018.1
20260510054604 51 141 4.0 14.0 0.00 0.00 0.00 75 1018.2
20260510054058 50 107 7.0 14.0 0.00 0.00 0.00 76 1018.1
20260510053559 50 209 3.0 9.0 0.00 0.00 0.00 77 1018.1
20260510053057 50 175 2.0 9.0 0.00 0.00 0.00 77 1018.1
20260510052558 50 131 3.0 9.0 0.00 0.00 0.00 78 1018.1
20260510052058 49 98 3.0 9.0 0.00 0.00 0.00 77 1018.2
20260510051605 49 105 2.0 5.0 0.00 0.00 0.00 78 1018.3
20260510051100 49 238 2.0 5.0 0.00 0.00 0.00 78 1018.2
20260510050558 49 110 1.0 5.0 0.00 0.00 0.00 78 1018.3
20260510045601 49 299 3.0 11.0 0.00 0.00 0.00 78 1018.1
20260510045058 49 59 4.0 11.0 0.00 0.00 0.00 78 1018.2
20260510044602 49 352 2.0 11.0 0.00 0.00 0.00 78 1018.3
20260510044058 49 49 2.0 8.0 0.00 0.00 0.00 78 1018.2
20260510043559 49 90 3.0 9.0 0.00 0.00 0.00 78 1018.2
20260510043057 49 33 3.0 12.0 0.00 0.00 0.00 78 1018.3
20260510042559 49 61 4.0 12.0 0.00 0.00 0.00 78 1018.4
20260510042057 49 90 4.0 10.0 0.00 0.00 0.00 78 1018.3
20260510041557 49 69 3.0 10.0 0.00 0.00 0.00 78 1018.3
20260510041058 49 179 4.0 12.0 0.00 0.00 0.00 78 1018.2
20260510040559 49 69 4.0 12.0 0.00 0.00 0.00 78 1018.3
20260510040100 49 63 2.0 8.0 0.00 0.00 0.00 79 1018.3
20260510035558 49 80 3.0 13.0 0.00 0.00 0.00 79 1018.3
20260510035057 49 126 5.0 13.0 0.00 0.00 0.00 79 1018.3
20260510034618 49 85 3.0 9.0 0.00 0.00 0.00 79 1018.2
20260510034058 49 74 3.0 13.0 0.00 0.00 0.00 78 1018.3
20260510033558 49 71 4.0 13.0 0.00 0.00 0.00 78 1018.4
20260510033100 49 71 3.0 9.0 0.00 0.00 0.00 79 1018.5
20260510032557 49 60 1.0 8.0 0.00 0.00 0.00 78 1018.4
20260510032057 49 77 3.0 9.0 0.00 0.00 0.00 78 1018.4
20260510031557 49 49 4.0 13.0 0.00 0.00 0.00 78 1018.4
20260510031056 49 84 4.0 13.0 0.00 0.00 0.00 79 1018.4
20260510030559 49 0 2.0 7.0 0.00 0.00 0.00 79 1018.4
20260510030109 49 57 2.0 7.0 0.00 0.00 0.00 79 1018.4
20260510025558 49 104 1.0 8.0 0.00 0.00 0.00 79 1018.4
20260510025058 50 80 3.0 8.0 0.00 0.00 0.00 79 1018.4
20260510024600 50 40 3.0 8.0 0.00 0.00 0.00 78 1018.3
20260510024058 50 93 2.0 10.0 0.00 0.00 0.00 78 1018.2
20260510023557 50 42 0.0 10.0 0.00 0.00 0.00 78 1018.3
20260510023058 50 44 2.0 10.0 0.00 0.00 0.00 78 1018.3
20260510022603 50 99 3.0 10.0 0.00 0.00 0.00 78 1018.2
20260510022057 50 59 4.0 12.0 0.00 0.00 0.00 78 1018.3
20260510021604 51 44 5.0 12.0 0.00 0.00 0.00 78 1018.3
20260510021058 51 66 3.0 11.0 0.00 0.00 0.00 78 1018.3
20260510020557 51 80 4.0 9.0 0.00 0.00 0.00 78 1018.4
20260510020056 51 42 5.0 9.0 0.00 0.00 0.00 78 1018.3
20260510015558 51 41 3.0 13.0 0.00 0.00 0.00 77 1018.4
20260510015056 51 59 6.0 13.0 0.00 0.00 0.00 77 1018.3
20260510014602 51 79 4.0 9.0 0.00 0.00 0.00 78 1018.3
20260510014058 51 66 3.0 8.0 0.00 0.00 0.00 78 1018.4
20260510013600 51 63 4.0 9.0 0.00 0.00 0.00 78 1018.4
20260510013126 51 98 3.0 9.0 0.00 0.00 0.00 79 1018.3
20260510012558 51 66 1.0 8.0 0.00 0.00 0.00 79 1018.4
20260510012057 51 115 0.0 7.0 0.00 0.00 0.00 79 1018.5
20260510011558 51 145 1.0 9.0 0.00 0.00 0.00 79 1018.3
20260510011058 52 0 2.0 9.0 0.00 0.00 0.00 79 1018.2
20260510010558 52 59 2.0 10.0 0.00 0.00 0.00 78 1018.2
20260510010058 52 74 3.0 14.0 0.00 0.00 0.00 78 1018.1
20260510005558 52 61 2.0 14.0 0.00 0.00 0.00 78 1018.0
20260510005100 52 88 4.0 14.0 0.00 0.00 0.00 78 1018.0
20260510004559 52 54 4.0 11.0 0.00 0.00 0.00 77 1017.9
20260510004059 53 119 2.0 13.0 0.00 0.00 0.00 77 1018.1
20260510003559 53 81 4.0 13.0 0.00 0.00 0.00 77 1018.1
20260510003107 53 53 3.0 13.0 0.00 0.00 0.00 77 1018.2
20260510002601 53 112 3.0 8.0 0.00 0.00 0.00 77 1018.1
20260510002105 53 320 2.0 6.0 0.00 0.00 0.00 77 1018.1
20260510001559 53 287 2.0 7.0 0.00 0.00 0.00 78 1018.1
20260510001059 53 0 2.0 7.0 0.00 0.00 0.00 78 1018.0
20260510000559 53 230 1.0 9.0 0.00 0.00 0.00 78 1018.1
20260510000126 54 92 2.0 9.0 0.00 0.00 0.00 77 1017.9
20260509235558 54 96 3.0 9.0 0.00 0.00 0.00 77 1017.9
20260509235058 54 319 4.0 10.0 0.00 0.00 0.00 77 1017.9
20260509234556 54 294 2.0 11.0 0.00 0.00 0.00 76 1018.0
20260509234058 54 94 3.0 11.0 0.00 0.00 0.00 76 1017.9
20260509233558 55 83 3.0 18.0 0.00 0.00 0.00 76 1017.9
20260509233058 55 93 6.0 18.0 0.00 0.00 0.00 76 1017.8
20260509232559 55 109 5.0 18.0 0.00 0.00 0.00 76 1017.8
20260509232059 55 19 7.0 17.0 0.00 0.00 0.00 76 1017.7
20260509231610 55 59 2.0 13.0 0.00 0.00 0.00 76 1017.7
20260509231058 55 24 6.0 13.0 0.00 0.00 0.00 76 1018.0
20260509230558 55 59 6.0 11.0 0.00 0.00 0.00 76 1018.0
20260509230108 55 84 5.0 11.0 0.00 0.00 0.00 76 1017.8
20260509225600 55 337 3.0 12.0 0.00 0.00 0.00 76 1017.5
20260509225110 56 136 5.0 12.0 0.00 0.00 0.00 76 1017.4
20260509224556 56 122 4.0 12.0 0.00 0.00 0.00 76 1017.4
20260509224058 56 288 3.0 10.0 0.00 0.00 0.00 76 1017.4
20260509223558 56 352 1.0 9.0 0.00 0.00 0.00 76 1017.5
20260509223110 56 46 2.0 12.0 0.00 0.00 0.00 75 1017.5
20260509222558 56 89 2.0 12.0 0.00 0.00 0.00 75 1017.5
20260509222058 56 40 3.0 12.0 0.00 0.00 0.00 76 1017.5
20260509221626 56 161 2.0 7.0 0.00 0.00 0.00 76 1017.5
20260509221059 57 83 2.0 6.0 0.00 0.00 0.00 76 1017.5
20260509220558 57 154 1.0 11.0 0.00 0.00 0.00 76 1017.4
20260509220057 57 37 2.0 11.0 0.00 0.00 0.00 76 1017.4
20260509215559 57 360 3.0 11.0 0.00 0.00 0.00 76 1017.5
20260509215103 57 350 3.0 11.0 0.00 0.00 0.00 76 1017.6
20260509214604 57 275 4.0 12.0 0.00 0.00 0.00 75 1017.5
20260509214059 57 325 6.0 12.0 0.00 0.00 0.00 75 1017.4
20260509213558 57 317 6.0 12.0 0.00 0.00 0.00 75 1017.4
20260509213057 57 333 5.0 11.0 0.00 0.00 0.00 75 1017.5
20260509212559 57 256 4.0 12.0 0.00 0.00 0.00 75 1017.4
20260509212058 57 296 5.0 12.0 0.00 0.00 0.00 74 1017.5
20260509211605 57 319 6.0 13.0 0.00 0.00 0.00 74 1017.5